Starlink 11578

operational
NORAD ID: 63014 Int'l Des: 2025-032 Owner: SPXS Country: US Constellation: starlink
LEOCIRCULAR

关于 Starlink 11578

正在加载描述...

实时位置

正在加载3D地球...

即将过境

高度历史

Altitude vs Time

uPlot chart will show altitude changes over time

两行轨道根数

1 63014U 25032K 25305.97219051 .00162890 00000-0 12474-2 0 9991
2 63014 43.0002 245.4925 0001256 261.0954 98.9771 15.70856238 42076
Epoch: Nov 1, 2025 • Age: 22 hours

当前状态

高度 358.8 km
速度 7.70 km/s
星下点 39.95°N, 3.07°W
发射日期 Feb 15, 2025
运行时间 0.7 years
类型 internet

技术详情

分类 Payload
质量 960.00 kg
干质量 910.00 kg
总质量 960.00 kg
长度 0.30 m
直径 4.10 m
跨度 29.00 m
形状 Box + pan
制造商 SPXS
平台类型 Starlink V2MD
阶段状态 In Orbit
所有者/国家 SPXS/US

大型星座

Loading constellations...